Wind_Speed
41 41 39 36 36 40 39 40 40 35 30 30 31 33 34 35 34 33 32 30 28 27 25 24 22 22 25 22 19 18 19 17 13 13 12 19 21 32 29 28 26 26 23
42 37 36 37 38 38 40 41 41 40 39 34 31 30 28 35 39 38 35 33 32 31 31 27 28 26 26 29 27 24 25 24 23 20 17 17 22 28 31 29 28 28 27
39 39 37 36 36 38 40 39 42 41 40 39 35 29 34 33 35 39 38 36 34 37 35 33 33 32 32 30 31 31 28 28 27 25 24 20 23 27 29 30 30 30 27
38 37 37 36 36 37 41 40 38 42 42 39 42 40 33 33 35 36 39 39 37 36 37 37 37 37 36 34 33 35 35 32 30 29 27 24 22 28 30 31 31 30 30
38 37 38 39 39 37 36 39 40 38 41 45 41 42 40 39 37 38 40 41 41 40 39 40 40 39 39 40 39 38 37 36 35 30 30 26 24 28 30 32 33 34 35
39 39 38 36 37 38 38 36 38 39 40 39 43 39 41 43 38 41 41 42 43 42 41 42 42 42 43 43 42 41 41 40 35 28 25 25 29 31 37 34 34 26 15
36 36 35 36 35 37 36 35 34 36 36 40 38 40 40 41 40 40 41 43 39 42 42 40 41 44 45 44 46 46 44 47 45 39 35 36 33 37 38 36 34 29 30
34 33 34 33 35 34 33 34 35 33 35 37 38 38 39 41 40 40 40 43 40 40 42 41 40 40 42 45 45 44 48 52 51 51 44 49 46 41 42 44 42 40 34
31 33 34 36 33 34 33 33 35 33 33 34 35 37 38 37 38 39 38 41 43 43 39 39 41 41 41 43 42 40 42 49 46 52 57 55 51 46 44 36 32 24 17
32 32 34 34 37 37 36 35 35 36 35 33 34 35 37 36 35 36 38 40 39 37 36 40 42 45 40 39 42 39 39 41 35 41 44 50 53 56 51 45 37 33 28
26 27 34 39 40 39 36 36 33 33 32 32 32 33 33 32 34 34 35 40 39 32 34 36 35 36 38 43 44 46 49 42 37 40 39 42 41 48 53 54 48 47 38
25 26 30 33 33 30 35 32 33 31 30 30 28 28 28 28 30 33 36 38 41 38 36 33 32 34 37 38 42 50 53 51 45 38 33 35 34 34 42 50 55 54 38
4 10 21 29 33 34 33 30 27 28 27 25 25 25 24 23 27 29 32 35 38 46 40 35 34 36 37 39 42 45 45 50 42 36 36 36 36 41 41 42 44 49 51
7 7 7 12 23 30 31 29 26 24 25 23 22 22 21 22 27 30 33 35 36 39 42 44 44 43 40 39 41 40 41 43 40 37 38 41 39 33 34 38 38 39 40
15 13 12 15 17 20 23 22 24 27 27 25 25 25 24 23 29 31 29 28 29 31 33 35 34 31 28 29 31 35 36 38 36 40 36 34 33 33 30 34 38 36 35
14 14 13 15 18 18 22 14 15 21 22 25 28 29 28 28 25 23 22 20 15 15 16 21 22 22 23 24 22 23 26 31 35 33 28 28 28 29 30 30 31 34 37
16 16 15 11 14 19 23 21 17 9 9 15 21 25 21 17 15 15 15 14 13 13 16 17 17 18 20 18 18 18 18 18 20 23 24 25 24 25 24 26 26 23 23
15 16 15 13 16 19 21 22 21 21 18 15 14 12 10 9 10 13 14 13 7 7 8 7 5 6 8 11 14 15 17 17 17 18 10 4 12 14 14 9 10 14 19
12 10 5 5 9 16 21 21 23 20 20 21 18 15 13 12 10 7 6 4 6 5 3 3 4 6 8 9 10 11 11 11 10 12 13 6 2 1 9 11 13 11 18
12 7 5 9 11 12 14 20 19 19 20 18 15 15 12 9 10 11 11 11 11 7 3 1 4 8 9 11 12 12 10 8 7 8 12 8 9 10 8 7 5 12 14
16 12 12 8 13 18 20 19 22 25 21 16 14 12 10 11 11 9 8 6 2 3 4 5 7 9 11 11 12 11 12 11 8 6 8 12 11 14 15 11 11 17 25
17 11 13 14 16 18 19 24 23 24 22 17 14 12 10 8 7 5 3 3 5 6 7 8 9 11 11 11 9 10 10 14 14 14 11 9 7 10 13 16 18 17 21
23 13 19 21 25 26 25 22 24 24 21 17 16 15 15 14 14 12 11 9 7 8 9 8 8 12 6 4 5 7 9 10 8 4 6 8 8 12 16 18 20 21 22
19 21 20 20 22 28 29 26 24 23 23 21 19 18 18 17 16 16 14 13 11 10 10 7 5 9 8 8 6 4 2 4 5 3 5 9 11 12 14 15 19 21 24
24 22 23 19 15 18 22 22 24 24 23 22 21 19 19 20 21 22 20 19 17 14 14 12 9 7 5 7 6 6 6 7 10 5 6 13 15 18 18 17 18 23 24
30 31 23 22 23 21 22 23 22 23 26 24 24 23 22 22 21 20 20 21 23 22 19 18 17 12 7 7 7 9 11 8 7 6 7 12 14 16 20 19 23 26 26
Wind_Direction
197 202 205 207 211 216 219 224 224 225 226 226 229 229 229 228 227 222 225 225 224 226 229 231 234 234 234 235 237 242 236 227 227 245 245 220 227 223 225 228 232 232 231
198 199 202 207 211 213 217 223 226 228 228 231 229 227 231 232 229 226 225 226 226 227 229 231 234 235 237 235 236 239 242 237 235 242 239 231 230 225 227 227 227 226 231
195 197 201 203 205 212 218 220 226 229 232 230 233 232 230 228 228 229 228 229 231 232 233 233 235 234 237 237 236 237 240 241 242 241 243 239 232 223 221 226 225 228 232
194 197 199 202 205 210 219 221 221 226 230 233 231 235 233 228 225 226 227 230 235 237 237 238 240 240 241 243 243 242 242 241 243 244 246 240 229 227 225 224 221 228 233
193 197 202 204 206 209 214 219 223 221 227 231 233 233 236 235 230 227 228 230 233 237 241 241 243 246 247 248 247 248 248 247 245 245 243 238 225 222 221 225 227 230 234
195 199 202 203 205 208 211 214 217 222 222 226 230 229 232 235 231 233 233 230 232 233 236 243 246 247 248 249 251 252 254 250 239 233 237 234 233 227 228 224 226 222 236
197 200 201 203 204 208 210 211 213 216 219 223 226 228 230 234 232 232 232 231 230 234 236 238 242 246 249 250 251 252 251 254 252 241 233 235 237 234 235 231 225 223 229
198 199 202 202 205 209 208 211 215 215 217 220 224 228 231 234 235 234 234 234 231 236 238 239 238 241 242 247 248 248 250 249 247 249 242 248 240 241 239 240 237 234 238
205 203 201 202 203 207 209 209 215 216 219 222 224 227 229 233 235 237 234 235 236 238 239 240 240 241 241 244 243 241 247 252 251 254 254 253 255 250 245 236 230 216 219
207 207 206 203 205 209 210 211 214 216 221 223 227 228 230 231 233 235 233 234 237 239 242 244 245 244 244 242 241 240 246 248 246 249 252 252 251 252 251 240 232 212 215
217 214 211 209 210 213 212 214 215 216 221 225 228 230 232 233 230 232 231 230 234 242 244 248 249 250 249 248 244 241 245 256 255 251 247 250 246 244 242 240 235 227 220
217 224 222 218 214 216 213 213 215 215 218 224 227 234 235 234 234 235 234 234 236 236 243 249 251 252 253 252 249 251 253 253 250 253 252 249 246 243 242 241 236 233 224
184 209 224 225 225 219 215 212 207 209 214 221 224 230 234 232 234 236 238 240 241 239 244 249 251 252 254 256 257 258 258 253 250 253 255 257 250 247 244 240 234 232 231
345 299 274 242 232 228 223 216 206 203 210 218 220 226 230 230 232 238 241 241 242 243 248 252 257 258 261 264 264 263 261 257 248 248 255 259 263 256 249 239 231 223 218
357 341 296 272 257 237 215 211 209 216 214 210 215 216 218 227 235 244 247 248 250 250 252 257 261 260 264 264 264 266 265 265 259 255 254 260 262 262 258 241 231 229 225
351 340 326 283 259 218 198 186 209 215 220 221 233 233 232 238 242 241 240 242 237 235 228 237 246 254 254 258 259 263 268 267 263 261 257 261 265 266 269 267 241 229 227
327 321 326 302 231 199 192 179 144 118 177 217 229 232 228 232 225 225 213 218 229 233 231 246 257 264 266 270 272 274 274 275 286 282 280 280 284 288 287 285 267 254 259
322 318 304 286 258 221 196 192 177 149 133 114 118 144 171 197 212 227 234 239 214 214 230 236 233 254 270 276 280 286 298 308 308 296 277 349 335 318 304 270 132 113 105
312 316 281 253 244 225 211 190 180 157 144 140 133 121 114 113 109 112 118 175 166 165 188 238 270 287 298 310 315 313 312 305 287 267 272 270 268 94 131 131 123 142 145
289 279 223 137 125 129 144 151 146 144 145 148 147 144 134 129 120 111 112 118 116 108 93 258 297 321 323 313 308 299 294 299 300 273 243 239 253 243 223 228 202 155 149
277 264 234 178 146 133 123 121 128 134 136 135 134 135 131 125 118 115 124 128 97 319 313 318 331 324 319 308 304 300 284 277 260 247 242 270 267 246 239 222 180 158 147
259 253 210 174 148 139 135 141 144 135 132 129 133 116 124 118 103 92 61 354 316 304 328 325 311 309 305 298 304 285 274 271 268 269 271 266 247 218 188 176 168 160 153
245 208 154 144 135 124 113 109 111 116 114 108 105 95 94 89 80 75 56 42 22 15 354 321 303 319 301 313 292 274 278 279 280 270 232 207 216 196 178 169 171 167 171
133 126 124 126 130 125 119 110 106 102 101 94 92 90 86 81 76 69 59 53 56 48 27 38 23 351 340 320 296 265 281 319 280 240 209 216 218 212 198 188 187 187 188
76 89 101 100 101 102 100 102 103 99 89 86 82 75 78 78 72 68 65 62 56 53 51 48 30 10 345 321 303 276 261 296 284 259 219 223 220 212 208 206 199 202 199
66 63 62 81 88 80 86 84 82 81 86 87 88 83 79 74 71 68 66 65 62 57 53 48 41 34 30 13 346 299 282 286 250 251 243 231 223 220 218 227 220 209 208
Height
761 766 773 779 785 790 794 798 802 807 810 813 816 819 822 827 830 833 835 837 839 842 843 845 847 848 848 849 850 850 849 849 849 848 848 849 849 850 853 854 857 857 857
753 761 767 772 777 782 787 791 795 799 804 808 812 815 818 820 822 826 829 832 834 835 837 840 840 842 843 843 845 845 845 845 845 844 845 845 844 845 847 849 849 850 850
747 753 759 765 770 775 779 784 789 794 797 803 806 807 809 812 816 819 823 826 827 828 830 832 833 836 836 837 838 839 841 841 840 840 840 841 841 841 842 843 843 845 847
740 746 751 757 762 767 771 776 781 785 790 794 797 800 803 805 808 812 815 819 820 822 824 825 828 829 831 833 834 833 834 835 835 835 836 837 837 837 838 838 839 841 841
732 738 742 747 753 759 764 768 772 777 781 786 790 793 795 798 801 805 808 810 812 814 816 818 820 821 823 824 826 826 828 830 830 832 832 832 830 831 830 831 832 833 833
722 727 734 740 745 750 754 759 763 767 772 777 780 784 786 788 792 796 800 803 805 807 809 810 812 813 814 816 816 818 820 820 822 824 825 824 823 822 823 823 824 826 826
715 721 727 732 738 742 747 752 756 760 764 767 771 774 776 778 783 788 792 795 797 797 799 801 802 803 804 805 806 807 810 808 809 811 812 811 811 811 813 814 814 814 813
709 714 720 726 731 735 741 744 748 753 756 758 762 765 767 769 775 780 785 788 789 788 788 790 791 792 793 794 796 796 796 794 797 800 801 794 794 798 800 801 802 805 808
703 706 710 717 723 727 732 737 740 745 748 751 753 755 757 761 766 771 777 780 779 777 779 780 780 781 782 785 788 787 785 780 786 787 784 786 789 789 791 796 796 800 799
694 698 704 709 714 717 722 727 731 735 738 742 744 745 747 752 757 761 766 770 768 768 771 769 769 770 775 778 779 780 775 770 777 776 774 775 777 777 778 780 783 779 778
690 695 698 700 704 708 714 719 724 727 731 734 735 738 740 743 747 751 756 759 758 761 760 759 761 763 766 768 769 767 762 768 768 766 763 761 761 763 762 765 766 761 762
686 690 693 696 700 705 708 712 716 720 723 726 729 731 733 736 739 742 745 748 750 751 750 751 753 754 755 756 756 753 754 758 758 757 754 750 751 752 751 749 748 746 740
684 686 688 690 693 697 701 705 709 713 716 719 722 724 725 728 731 734 736 738 740 741 741 742 744 745 745 745 745 745 745 748 748 748 744 741 738 735 734 734 736 737 738
685 686 686 687 690 693 695 698 702 705 709 712 715 717 719 721 723 725 726 727 731 733 734 734 735 737 737 737 736 736 737 737 737 736 733 730 730 725 723 723 723 723 725
685 684 683 684 685 687 691 694 696 698 700 703 706 709 712 713 713 715 718 720 722 724 726 727 728 728 728 728 727 726 727 728 727 725 723 721 721 719 715 713 711 715 716
685 685 683 682 682 684 686 689 691 693 695 698 700 703 705 706 708 710 712 714 716 718 719 720 720 721 721 721 720 720 719 718 716 716 716 715 713 711 708 707 702 702 698
683 682 681 680 680 680 683 684 687 692 693 694 697 700 701 703 704 706 708 711 712 714 715 716 717 718 718 718 717 716 715 714 714 714 712 712 709 706 703 700 696 690 691
682 680 677 675 675 677 678 681 683 687 691 696 698 699 700 701 703 704 705 706 708 710 711 712 713 714 714 714 713 712 711 711 711 711 709 708 707 704 699 696 695 694 690
680 677 674 672 672 672 674 678 682 687 691 694 697 700 700 701 702 702 703 704 705 708 708 709 709 709 709 709 709 709 707 706 706 705 706 706 705 704 702 699 698 700 698
679 678 677 673 674 675 675 676 681 686 691 695 698 699 700 702 703 703 703 705 704 705 706 707 707 707 706 706 706 704 704 703 700 700 700 701 703 703 702 702 703 700 703
677 677 677 677 676 677 679 682 682 686 692 697 699 700 701 703 703 704 704 705 706 707 707 706 705 705 704 704 704 703 705 703 698 696 696 696 695 697 700 702 705 705 703
674 674 676 677 677 678 680 681 685 689 693 697 699 701 702 704 704 704 705 705 706 706 705 703 704 704 703 703 701 702 701 701 698 696 695 694 694 695 696 698 703 706 707
670 671 673 677 679 681 684 687 689 691 696 699 700 701 703 703 703 704 704 704 705 702 702 703 703 703 701 701 701 701 700 700 698 694 695 695 698 700 698 699 702 705 708
667 670 674 678 680 681 683 688 694 696 696 700 704 706 706 706 705 705 704 703 702 703 704 702 703 704 703 703 700 700 696 698 696 693 693 697 700 702 703 702 704 706 708
671 673 673 680 688 687 687 690 692 696 700 702 706 709 710 709 708 707 706 706 706 705 704 704 704 704 704 704 701 700 698 695 697 693 692 696 698 699 701 702 702 705 706
679 678 683 685 689 689 694 695 697 700 700 706 709 710 713 714 713 713 713 712 710 709 708 707 705 704 703 701 699 699 697 693 695 695 693 695 696 698 699 700 702 701 705